BCS329 EDDP-ESGG

Flight info

Callsign BCS329
Flight time N/A
Altitude 35000
Route PENEM1E/08R PENEM Y233 ODLUN Z207 MAG M736 BIRMO DCT NUVEN DCT KOSEB DCT MOSIN DCT INRER DCT ERNOV N15 RISMA
Aircraft A306/H-SDE3FGHIRWY/LB1

Departure

Time N/A
Airport Leipzig/Halle Airport (EDDP)

Arrival

Time 2026-04-30 22:25
Airport Göteborg Landvetter Airport (ESGG)
Time Latitude Longitude Altitude Speed Heading
2026-04-30 22:14 57.49873 11.93860 12624 ft 315 kts 20°
2026-04-30 22:15 57.51853 11.95359 12362 ft 302 kts 32°
2026-04-30 22:15 57.53682 11.97219 11874 ft 298 kts 35°
2026-04-30 22:15 57.55446 11.99102 11376 ft 294 kts 34°
2026-04-30 22:15 57.57222 12.00938 10911 ft 290 kts 34°
2026-04-30 22:16 57.58994 12.02720 10517 ft 288 kts 27°
2026-04-30 22:16 57.60755 12.04473 10393 ft 287 kts 33°
2026-04-30 22:17 57.65966 12.09920 10382 ft 287 kts 35°
2026-04-30 22:17 57.67701 12.11759 10383 ft 286 kts 25°
2026-04-30 22:17 57.71485 12.13768 9991 ft 285 kts 26°
2026-04-30 22:18 57.73230 12.15531 9612 ft 283 kts 23°
2026-04-30 22:18 57.76711 12.18630 8675 ft 276 kts 25°
2026-04-30 22:19 57.80125 12.21877 7620 ft 272 kts 26°
2026-04-30 22:19 57.81791 12.23501 7113 ft 269 kts 26°
2026-04-30 22:19 57.85029 12.26740 6328 ft 257 kts 30°
2026-04-30 22:20 57.86315 12.29014 5931 ft 254 kts 56°
2026-04-30 22:20 57.86990 12.35299 5137 ft 246 kts 91°
2026-04-30 22:20 57.86575 12.38391 4673 ft 245 kts 118°
2026-04-30 22:21 57.85430 12.40654 4214 ft 239 kts 150°
2026-04-30 22:21 57.83882 12.41550 3834 ft 229 kts 175°
2026-04-30 22:21 57.82323 12.41698 3470 ft 219 kts 186°
2026-04-30 22:21 57.80867 12.41204 3144 ft 213 kts 202°
2026-04-30 22:22 57.79547 12.40096 2985 ft 201 kts 211°
2026-04-30 22:22 57.78339 12.38977 2870 ft 189 kts 210°
2026-04-30 22:22 57.77171 12.37922 2622 ft 184 kts 210°
2026-04-30 22:22 57.76035 12.36886 2408 ft 178 kts 211°
2026-04-30 22:23 57.74952 12.35899 2156 ft 168 kts 211°
2026-04-30 22:23 57.73937 12.34968 1907 ft 158 kts 211°
2026-04-30 22:23 57.72955 12.34065 1706 ft 154 kts 210°
2026-04-30 22:23 57.72017 12.33210 1484 ft 145 kts 210°
2026-04-30 22:24 57.71126 12.32396 1316 ft 140 kts 210°
2026-04-30 22:24 57.70260 12.31603 1100 ft 135 kts 208°
2026-04-30 22:24 57.69441 12.30858 931 ft 128 kts 208°
2026-04-30 22:24 57.68647 12.30132 763 ft 126 kts 207°
2026-04-30 22:25 57.67867 12.29417 578 ft 121 kts 206°
2026-04-30 22:25 57.67114 12.28731 523 ft 117 kts 206°
2026-04-30 22:25 57.66518 12.28187 522 ft 71 kts 205°
2026-04-30 22:25 57.66222 12.27926 513 ft 23 kts 191°
2026-04-30 22:26 57.66118 12.28153 510 ft 13 kts 64°
2026-04-30 22:26 57.66164 12.28215 511 ft 5 kts 28°
2026-04-30 22:26 57.66184 12.28235 512 ft 2 kts 27°
2026-04-30 22:27 57.66201 12.28251 513 ft 2 kts 27°
2026-04-30 22:27 57.66208 12.28259 513 ft 3 kts 27°
2026-04-30 22:27 57.66292 12.28334 514 ft 13 kts 25°
2026-04-30 22:28 57.66481 12.28504 513 ft 21 kts 25°
2026-04-30 22:28 57.66636 12.28634 511 ft 28 kts 24°
2026-04-30 22:29 57.66967 12.28947 519 ft 12 kts 26°
2026-04-30 22:29 57.67076 12.29046 520 ft 19 kts 25°
2026-04-30 22:30 57.67418 12.29460 518 ft 9 kts 112°
2026-04-30 22:31 57.67327 12.29679 517 ft 5 kts 156°
2026-04-30 22:32 57.67305 12.29726 520 ft 1 kts 118°
2026-04-30 22:32 57.67291 12.29776 522 ft 2 kts 116°
2026-04-30 22:33 57.67288 12.29787 523 ft 0 kts 116°